www.pogodaiklimat.ru

Погода и климат >> Архив погоды >> Мексика >> Мазатлан


ПОГОДА в Мазатлане

  • Прогноз погоды в Мазатлане
  • Монитор погоды в Мазатлане

АРХИВ ПОГОДЫ в Мазатлане

Время (UTC), дата Ветер
(напр.,м/с)
 
Видим.   Явления Облачность Т
(С)
Тd
(С)
f
(%)
Тe
(С)
Тes
(С)
Комфортность P
(гПа)
Po
(гПа)
Тmin
(С)
Tmax
(С)
R
(мм)
R24
(мм)
S
(см)
09 16.02 ЮВ 1 10 км ясно +20.6 +18.2 86 +26 +26 душно 1012.0 1011.5
12 16.02 В 1 10 км ясно +20.4 +17.1 81 +25 +25 комфорт 1011.3 1010.8 +18.9 +27.5
15 16.02 С 1 20 км дымка {туман} ясно +20.5 +16.3 77 +25 +28 комфорт 1011.8 1011.4
18 16.02 З 1 20 км ясно +24.9 +18.1 66 +29 +45 душно 1012.4 1012.0 +18.4 +26.6
21 16.02 С 1 20 км ясно +25.4 +20.2 73 +31 +45 очень
душно
1009.4 1008.9
00 17.02 СЗ 1 20 км ясно +25.0 +18.7 68 +30 +31 душно 1008.3 1007.8 +18.4 +26.6
03 17.02 ЮЗ 4 10 км ясно +21.5 +18.2 81 +26 +26 душно 1019.0 1018.5
06 17.02 СЗ 4 10 км ясно +21.7 +18.1 80 +26 +26 душно 1010.6 1010.1 +18.4 +26.6
09 17.02 С 1 10 км ясно +20.0 +17.6 86 +24 +24 комфорт 1011.0 1010.6
12 17.02 С 1 10 км ясно +19.2 +16.9 87 +22 +22 комфорт 1011.3 1010.8 +18.0 +26.6
15 17.02 СЗ 1 20 км ясно +19.5 +14.4 72 +22 +26 комфорт 1013.6 1013.1
18 17.02 З 1 20 км ясно +23.3 +15.8 63 +28 +44 душно 1015.4 1014.9 +17.3 +24.1
21 17.02 З 3 20 км ясно +24.5 +16.8 62 +28 +38 душно 1013.6 1013.2
00 18.02 З 5 20 км ясно +23.5 +15.8 62 +27 +27 душно 1012.8 1012.4 +17.3 +25.4
03 18.02 СЗ 1 10 км ясно +21.1 +16.5 75 +25 +25 комфорт 1013.8 1013.3
06 18.02 СЗ 1 10 км ясно +19.8 +15.9 78 +23 +23 комфорт 1014.3 1013.8 +25.4
09 18.02 С 1 10 км ясно +18.2 +13.7 75 +20 +20 1013.7 1013.3
12 18.02 С 1 10 км ясно +17.4 +14.5 83 +18 +18 1013.3 1012.9 +16.4 +25.4
15 18.02 С 1 20 км дымка {туман} ясно +18.9 +13.4 70 +21 +24 комфорт 1014.7 1014.2
18 18.02 З 2 20 км {туман} ясно +24.3 +16.4 61 +28 +42 душно 1015.3 1014.8 +15.9 +25.1
21 18.02 С 2 20 км 3/0
[Cs]
+24.2 +16.6 63 +28 +39 душно 1013.2 1012.8
00 19.02 СЗ 4 20 км 5/0
[Cs]
+23.3 +16.3 65 +28 +28 душно 1011.5 1011.1 +15.9 +26.0
03 19.02 С 2 10 км ясно +20.5 +14.3 68 +24 +24 комфорт 1012.9 1012.4
06 19.02 С 1 10 км ясно +18.5 +14.3 77 +20 +20 1013.0 1012.6 +26.0
09 19.02 С 1 10 км ясно +17.1 +13.3 78 +18 +18 1013.1 1012.6
12 19.02 СЗ 1 10 км 6/0
[Ac und]
+16.4 +12.8 79 +17 +17 1013.0 1012.5 +14.4 +26.0 301
15 19.02 С 1 20 км 3/0 2000 м
[Ac und]
+17.6 +12.3 71 +19 +21 1015.5 1015.0
18 19.02 СЗ 2 20 км 1/0 2000 м
[Ac trans]
+22.4 +11.4 50 +25 +38 комфорт 1017.0 1016.6 +14.4 +23.0
21 19.02 З 9 20 км ясно +22.3 +13.5 57 +25 +26 комфорт 1015.3 1014.8
00 20.02 С 13 20 км ясно +22.3 +13.3 57 +25 +25 комфорт 1012.7 1012.2 +14.4 +23.7
03 20.02 С 5 10 км ясно +19.5 +13.0 66 +21 +21 комфорт 1013.7 1013.3
06 20.02 СЗ 3 10 км ясно +17.9 +10.0 60 +18 +18 1014.2 1013.8 +23.7
09 20.02 СЗ 5 10 км ясно +17.2 +10.9 66 +17 +17 1013.4 1013.0
12 20.02 СЗ 1 10 км 3/0
[Ac und]
+15.9 +8.3 61 +17 +17 1013.3 1012.8 +14.7 +23.7
15 20.02 СЗ 2 20 км 3/1 1110 м
[Cu med, cong Ac trans]
+16.3 +7.5 56 +16 +19 1014.1 1013.6
18 20.02 З 4 20 км 3/1 1080 м
[Sc diur, vesp Ac trans]
+19.9 +11.2 57 +21 +29 комфорт 1014.3 1013.8 +13.9 +20.5
21 20.02 СЗ 15 20 км 5/0 2000 м
[Ac und]
+21.3 +10.5 50 +23 +23 комфорт 1012.0 1011.5
00 21.02 СЗ 9 20 км ясно +20.4 +10.1 52 +21 +21 комфорт 1010.8 1010.3 +13.9 +22.3
03 21.02 З 3 10 км 4/4 800 м
[Sc diur, vesp]
+18.5 +12.0 66 +19 +19 1011.5 1011.0
06 21.02 С 1 10 км 6/3 930 м
[Sc diur, vesp Ac und]
+17.9 +10.4 61 +19 +19 1012.4 1012.0 +22.3
09 21.02 З 1 10 км 9/0 2000 м
[Ac As]
+18.4 +11.0 62 +20 +20 1012.5 1012.0
12 21.02 С 1 10 км 9/6 900 м
[Sc diur, vesp Ac As]
+17.9 +10.6 62 +19 +19 1012.5 1012.0 +17.0 +22.3
15 21.02 В 2 20 км 10/0 2000 м
[As op]
+18.5 +10.7 60 +19 +20 1013.3 1012.9
18 21.02 Ю 2 20 км 10/0 2000 м
[Ac As]
+20.5 +11.5 56 +23 +27 комфорт 1014.4 1013.9 +15.6 +22.3
21 21.02 З 1 20 км 10/0 2000 м
[Ac As]
+20.9 +13.0 61 +25 +29 комфорт 1013.5 1013.0
00 22.02 З 2 20 км 10/0 2000 м
[Ac As]
+21.1 +14.1 64 +24 +24 комфорт 1012.4 1011.9 +15.6 +22.5
03 22.02 С 1 10 км 5/1 660 м
[Sc diur, vesp Ac und]
+19.6 +14.4 72 +22 +22 комфорт 1013.6 1013.1
09 22.02 С 1 10 км ясно +15.9 +12.6 81 +17 +17 1014.3 1013.8
12 22.02 С 1 10 км ясно +15.8 +10.6 71 +17 +17 1013.7 1013.2 +14.4 +22.5
15 22.02 СЗ 1 20 км 4/0
[Ci sp]
+18.3 +11.2 63 +20 +23 1015.5 1015.0
18 22.02 З 4 20 км 3/0
[Ci]
+23.5 +12.5 50 +25 +35 комфорт 1016.7 1016.2 +14.0 +24.3
21 22.02 З 5 20 км 4/0
[Ci]
+24.3 +14.6 55 +27 +33 жарко 1015.5 1015.1
00 23.02 СЗ 4 20 км 8/0
[Cs]
+22.2 +14.7 62 +26 +26 душно 1015.7 1015.2 +14.0 +25.3
03 23.02 СЗ 2 10 км 4/0
[Ci fib]
+20.8 +13.2 62 +24 +24 комфорт 1017.0 1016.6
06 23.02 С 1 10 км 3/0
[Ci fib]
+19.5 +16.3 82 +23 +23 комфорт 1017.5 1017.1 +25.3

 

Местоположение метеостанции Мазатлан (Мексика): широта 23.20 долгота -106.40 высота над уровнем моря 4 м.

В архиве по умолчанию представлена погода в Мазатлане за последнюю неделю. Архивные данные за месяц целиком и за предыдущие месяцы, начиная с января 2011 года, Вы можете получить, выбрав интересующий диапазон дат из раскрывающегося списка и нажав кнопку "Ввод!".


*Определитесь, кто Вы:
робот инопланетянин человек

Внимание! Время в таблицах - всемирное. Для получения местного времени необходимо прибавить поправку, которая равна -7 ч.

Смотрите также архив погоды в соседних городах и на ближайших метеорологических станциях:

Погода в Кульякане (Мексика) (205 км)
Погода в Дуранго (Мексика) (206 км)
Погода в Тепеуанесе (Мексика) (248 км)
Погода в Тепике (Мексика) (249 км)
Погода в Сомбререте (Мексика) (290 км)
Погода в Уэхукаре (Мексика) (324 км)
Погода в Колотлане (Мексика) (344 км)
Погода в Торреоне (Мексика) (399 км)
Погода в Сакатекасе (Мексика) (402 км)
Погода в Ла-Пасе (Мексика) (412 км)

Пояснения к столбцам:

Ветер - указаны скорость ветра в м/с - средняя за 10 мин, порывы в срок и между сроками (в фигурных скобках) и направление, откуда дует ветер: С - северный, СВ - северо-восточный, В - восточный, ЮВ - юго-восточный, Ю - южный, ЮЗ - юго-западный, З - западный, СЗ - северо-западный.
Видимость - горизонтальная дальность видимости в метрах или километрах. При видимости от 1 до 10 км при отсутствии осадков обычно наблюдается дымка, при ухудшении видимости до 1 км и менее - туман. В сухую погоду видимость может ухудшаться дымом, пылью или мглою.
Явления - указаны атмосферные явления, наблюдавшиеся в срок или в последний час перед сроком; фигурными скобками обозначены явления, наблюдавшиеся между сроками (за 1-3 часа до срока); квадратными скобками обозначены град или гололедные отложения с указанием их диаметра в мм.
Облачность - указаны через наклонную черту общая и нижняя облачность в баллах и высота нижней границы облаков в метрах; квадратными скобками обозначены формы облаков: Ci - перистые, Cs - перисто-слоистые, Cc - перисто-кучевые, Ac - высококучевые, As - высокослоистые, Sc - слоисто-кучевые, Ns - слоисто-дождевые, Cu - кучевые, Cb - кучево-дождевые. Подробнее классификацию облаков см. в Атласе облаков (PDF).
T - Температура воздуха - температура, измеренная на высоте 2 м над землей.
Td - Температура точки росы - температура, при понижении до которой содержащийся в воздухе водяной пар достигнет насыщения.
f - Относительная влажность воздуха - влажноcть воздуха, измеренная на высоте 2 м над землей.
Te - Эффективная температура - температура, которую ощущает одетый по сезону человек в тени. Характеристика душности погоды. При расчете учитывается влияние влажности воздуха и скорости ветра на теплоощущения человека.
Tes - Эффективная температура на солнце - температура, которую ощущает человек, с поправкой на солнечный нагрев. Характеристика знойности погоды. Зависит от высоты солнца над горизонтом, облачности и скорости ветра. Ночью, в пасмурную погоду, а также при ветре 12 м/с и более поправка равна нулю.
P - Атмосферное давление - приведенное к уровню моря атмосферное давление.
Po - Атмосферное давление - измеренное на уровне метеостанции атмосферное давление.
Tmin - Минимальная температура - минимум температуры воздуха на высоте 2 м над землей.
Tmax - Максимальная температура - максимум температуры воздуха на высоте 2 м над землей.
R - Количество осадков - Количество выпавших осадков за период времени, мм. При наведении курсора мыши на число - период времени, за который выпало указанное количество осадков.
R24 - Количество осадков - Количество выпавших осадков за 24 часа, мм.
S - Снежный покров - Высота снежного покрова, см. При наведении курсора мыши на число - состояние снежного покрова и степень покрытия местности в баллах.